Terminal Aerodrome Forecast
Issued by NWS

Home | Current Version | Previous Version | Graphics & Text | Print | Product List | Glossary On
Versions: 1 2 3 4 5 6 7 8 9 10 11 12 13 14 15 16 17 18 19 20 21 22
528
FTUS43 KMPX 190642 AAA
TAFRWF
TAF AMD
KRWF 190642Z 1907/2006 13008KT 2SM BR OVC002
     FM191500 15014G23KT 4SM BR BKN006 OVC012
     FM191700 15020G30KT P6SM BKN020
     FM200100 15021G29KT P6SM SCT020 BKN120 WS018/16050KT=

USA.gov is the U.S. government's official web portal to all federal, state and local government web resources and services.